sat.trackr.live / text

‹ back to catalog

STARLINK-35453

NORAD 65878 · 2025-223AA

PAYLOAD ACTIVE UNKNOWN

§ Identity

Operator
Country
US
Launch date
2025-10-03
Launch site
AFWTR
Launch vehicle
Mass (kg)
RCS (m²)

Purposes: comms

External: N2YO · Heavens-Above · Gunter

§ Orbital elements

Epoch: 2026-09-20T22:35:27.706560Z

Period
93.85 min
Inclination
53.1581°
Eccentricity
0.0001107
Mean motion
15.34397617 rev/d
Perigee alt
462.0 km
Apogee alt
463.5 km
Semi-major
6,840.8 km
B*
4.3618e-4
RAAN
103.4128°
Arg perigee
95.7634°
Mean anomaly
264.3495°
Rev number
5,415

§ Raw data

STARLINK-354531 65878U 25223AA  26263.94129290  .00014388  00000+0  43618-3 0  99912 65878  53.1581 103.4128 0001107  95.7634 264.3495 15.34397617 54155

JSON: /api/v1/satellites/65878 · /tle

For live sub-satellite position, see the globe view (requires WebGL).

§ Visibility from observer

Set your observer location to see the next 7 days of passes ≥ 10°. The values pass through the URL so the page stays shareable.

No JS? Fill the form by hand. The geolocation button needs JavaScript.